QPF
0.00 0.00 0.00 0.00 0.00 0.00 0.00 0.01 0.01 0.01 0.02 0.01 0.01 0.00 0.00 0.00 0.01 0.02 0.03 0.04 0.05 0.06 0.07 0.06 0.06 0.05 0.04 0.02 0.01 0.01 0.01 0.01 0.01 0.02 0.02 0.02 0.02 0.01 0.01 0.01 0.01 0.00 0.00
0.00 0.00 0.00 0.00 0.00 0.00 0.00 0.00 0.01 0.01 0.01 0.01 0.01 0.01 0.01 0.00 0.01 0.02 0.02 0.03 0.04 0.05 0.06 0.07 0.08 0.07 0.07 0.05 0.03 0.01 0.01 0.02 0.02 0.02 0.02 0.03 0.03 0.02 0.01 0.01 0.01 0.00 0.00
0.00 0.00 0.00 0.00 0.00 0.00 0.00 0.00 0.00 0.01 0.01 0.01 0.01 0.01 0.01 0.00 0.00 0.00 0.01 0.01 0.02 0.03 0.03 0.04 0.05 0.07 0.07 0.07 0.06 0.04 0.03 0.03 0.03 0.03 0.02 0.02 0.02 0.03 0.02 0.01 0.01 0.01 0.00
0.00 0.00 0.00 0.00 0.00 0.00 0.00 0.00 0.00 0.01 0.01 0.01 0.01 0.01 0.01 0.01 0.01 0.01 0.01 0.01 0.01 0.01 0.02 0.03 0.03 0.03 0.04 0.04 0.05 0.04 0.03 0.02 0.03 0.03 0.02 0.02 0.01 0.02 0.02 0.01 0.01 0.01 0.00
0.00 0.00 0.00 0.00 0.00 0.00 0.00 0.00 0.00 0.00 0.01 0.01 0.01 0.01 0.01 0.01 0.01 0.01 0.01 0.01 0.01 0.01 0.01 0.02 0.02 0.02 0.03 0.02 0.02 0.03 0.03 0.02 0.03 0.04 0.04 0.03 0.02 0.01 0.01 0.01 0.01 0.01 0.00
0.00 0.00 0.00 0.00 0.00 0.00 0.00 0.00 0.00 0.00 0.00 0.01 0.01 0.01 0.02 0.02 0.01 0.01 0.01 0.01 0.01 0.01 0.01 0.01 0.01 0.01 0.02 0.02 0.02 0.03 0.03 0.03 0.03 0.04 0.05 0.04 0.03 0.01 0.01 0.01 0.00 0.00 0.00
0.00 0.00 0.00 0.00 0.00 0.00 0.00 0.00 0.00 0.00 0.00 0.01 0.01 0.01 0.01 0.02 0.02 0.01 0.01 0.01 0.02 0.01 0.02 0.02 0.02 0.02 0.01 0.02 0.03 0.03 0.04 0.04 0.04 0.04 0.04 0.04 0.04 0.02 0.01 0.01 0.01 0.01 0.01
0.00 0.00 0.00 0.00 0.00 0.00 0.00 0.00 0.00 0.00 0.00 0.00 0.01 0.01 0.02 0.02 0.03 0.02 0.01 0.02 0.02 0.02 0.01 0.01 0.02 0.02 0.02 0.03 0.04 0.04 0.03 0.04 0.03 0.03 0.03 0.03 0.04 0.03 0.01 0.01 0.02 0.01 0.01
0.00 0.00 0.00 0.00 0.00 0.00 0.00 0.00 0.00 0.00 0.00 0.00 0.01 0.01 0.02 0.02 0.02 0.02 0.02 0.02 0.03 0.02 0.02 0.02 0.02 0.02 0.02 0.04 0.05 0.04 0.03 0.03 0.02 0.02 0.02 0.03 0.03 0.03 0.02 0.01 0.01 0.02 0.02
0.00 0.00 0.00 0.00 0.00 0.00 0.00 0.00 0.00 0.00 0.00 0.00 0.01 0.01 0.01 0.01 0.01 0.02 0.02 0.02 0.03 0.02 0.02 0.01 0.02 0.03 0.03 0.03 0.04 0.03 0.03 0.02 0.02 0.02 0.02 0.02 0.02 0.03 0.02 0.01 0.01 0.01 0.02
0.00 0.00 0.00 0.00 0.00 0.01 0.01 0.00 0.00 0.00 0.00 0.00 0.00 0.00 0.00 0.01 0.01 0.01 0.02 0.01 0.01 0.01 0.01 0.02 0.02 0.03 0.03 0.04 0.03 0.02 0.02 0.02 0.01 0.01 0.02 0.02 0.02 0.02 0.02 0.02 0.01 0.01 0.02
0.00 0.00 0.00 0.00 0.00 0.01 0.01 0.00 0.00 0.00 0.00 0.00 0.00 0.00 0.00 0.01 0.01 0.01 0.01 0.00 0.00 0.01 0.01 0.01 0.01 0.03 0.04 0.04 0.03 0.02 0.02 0.01 0.01 0.01 0.01 0.02 0.02 0.02 0.02 0.01 0.01 0.01 0.02
0.00 0.00 0.00 0.00 0.00 0.01 0.01 0.00 0.00 0.00 0.00 0.00 0.00 0.00 0.00 0.00 0.01 0.01 0.00 0.00 0.00 0.00 0.00 0.01 0.01 0.03 0.04 0.05 0.05 0.03 0.02 0.02 0.01 0.01 0.01 0.01 0.02 0.02 0.02 0.01 0.01 0.01 0.03
0.00 0.00 0.00 0.00 0.00 0.01 0.01 0.00 0.00 0.00 0.00 0.00 0.00 0.00 0.00 0.00 0.01 0.01 0.00 0.00 0.00 0.01 0.01 0.01 0.01 0.02 0.04 0.05 0.05 0.04 0.03 0.02 0.02 0.01 0.01 0.01 0.01 0.02 0.02 0.01 0.01 0.02 0.05
0.00 0.00 0.00 0.00 0.01 0.01 0.01 0.01 0.00 0.00 0.00 0.00 0.00 0.00 0.00 0.00 0.00 0.01 0.00 0.00 0.00 0.01 0.01 0.01 0.01 0.02 0.03 0.05 0.06 0.04 0.03 0.03 0.02 0.02 0.02 0.01 0.01 0.02 0.02 0.02 0.02 0.03 0.05
0.01 0.00 0.00 0.00 0.01 0.01 0.01 0.01 0.01 0.00 0.00 0.00 0.00 0.00 0.00 0.00 0.00 0.00 0.00 0.00 0.00 0.00 0.01 0.01 0.01 0.02 0.03 0.04 0.06 0.05 0.04 0.03 0.02 0.02 0.02 0.01 0.01 0.02 0.02 0.02 0.02 0.03 0.05
0.01 0.00 0.00 0.00 0.01 0.01 0.01 0.01 0.00 0.00 0.00 0.00 0.00 0.00 0.00 0.00 0.00 0.00 0.00 0.00 0.00 0.00 0.01 0.01 0.01 0.02 0.03 0.04 0.05 0.05 0.04 0.03 0.03 0.03 0.02 0.02 0.02 0.02 0.01 0.02 0.03 0.04 0.05
0.01 0.01 0.01 0.01 0.01 0.01 0.01 0.01 0.00 0.00 0.00 0.00 0.00 0.00 0.00 0.00 0.00 0.00 0.01 0.01 0.01 0.01 0.01 0.01 0.01 0.02 0.02 0.03 0.03 0.04 0.03 0.03 0.03 0.03 0.02 0.02 0.03 0.02 0.02 0.02 0.03 0.04 0.06
0.02 0.02 0.01 0.01 0.01 0.01 0.01 0.00 0.00 0.00 0.00 0.00 0.00 0.00 0.00 0.00 0.00 0.01 0.01 0.01 0.01 0.01 0.01 0.01 0.01 0.01 0.01 0.02 0.02 0.03 0.03 0.03 0.02 0.02 0.02 0.03 0.04 0.05 0.05 0.04 0.04 0.06 0.07
0.02 0.02 0.02 0.02 0.02 0.01 0.00 0.00 0.00 0.00 0.00 0.00 0.00 0.01 0.01 0.00 0.00 0.01 0.01 0.01 0.02 0.01 0.01 0.01 0.01 0.01 0.01 0.01 0.01 0.02 0.02 0.03 0.03 0.02 0.02 0.03 0.04 0.05 0.05 0.05 0.04 0.05 0.06
0.03 0.03 0.03 0.03 0.03 0.01 0.00 0.00 0.00 0.00 0.00 0.00 0.00 0.01 0.01 0.01 0.01 0.01 0.01 0.02 0.02 0.02 0.02 0.01 0.01 0.01 0.01 0.01 0.01 0.02 0.02 0.03 0.03 0.03 0.03 0.03 0.04 0.05 0.05 0.05 0.05 0.05 0.05
0.02 0.03 0.03 0.03 0.03 0.02 0.01 0.01 0.01 0.01 0.01 0.00 0.01 0.01 0.01 0.01 0.01 0.01 0.02 0.02 0.02 0.02 0.02 0.02 0.01 0.01 0.01 0.01 0.02 0.02 0.02 0.02 0.03 0.04 0.03 0.04 0.04 0.04 0.04 0.05 0.06 0.06 0.05
0.02 0.02 0.02 0.02 0.02 0.02 0.02 0.02 0.02 0.02 0.01 0.01 0.01 0.02 0.02 0.02 0.02 0.02 0.02 0.01 0.02 0.02 0.02 0.02 0.02 0.01 0.01 0.01 0.02 0.02 0.03 0.02 0.02 0.03 0.04 0.04 0.04 0.04 0.04 0.04 0.05 0.06 0.05
0.02 0.02 0.02 0.02 0.01 0.02 0.02 0.02 0.02 0.02 0.02 0.01 0.02 0.03 0.03 0.03 0.03 0.02 0.02 0.02 0.02 0.02 0.02 0.02 0.02 0.02 0.02 0.02 0.02 0.03 0.03 0.03 0.03 0.03 0.04 0.04 0.04 0.03 0.03 0.03 0.04 0.04 0.05
0.02 0.01 0.02 0.02 0.02 0.01 0.01 0.01 0.02 0.02 0.02 0.02 0.03 0.04 0.04 0.03 0.04 0.03 0.03 0.03 0.02 0.02 0.02 0.02 0.02 0.02 0.02 0.03 0.03 0.04 0.04 0.04 0.03 0.03 0.04 0.04 0.04 0.03 0.03 0.03 0.03 0.03 0.04
0.02 0.02 0.02 0.03 0.02 0.01 0.01 0.01 0.02 0.02 0.02 0.02 0.02 0.03 0.04 0.04 0.04 0.04 0.04 0.04 0.03 0.03 0.03 0.03 0.03 0.02 0.03 0.03 0.03 0.04 0.03 0.04 0.03 0.03 0.03 0.03 0.03 0.03 0.03 0.03 0.03 0.03 0.03
MSLP
1010.78 1011.27 1011.68 1012.03 1012.33 1012.62 1012.96 1013.37 1013.87 1014.44 1015.04 1015.61 1016.10 1016.47 1016.69 1016.76 1016.73 1016.64 1016.54 1016.49 1016.51 1016.62 1016.80 1017.00 1017.17 1017.26 1017.22 1017.01 1016.64 1016.10 1015.46 1014.75 1014.06 1013.44 1012.96 1012.67 1012.59 1012.73 1013.08 1013.62 1014.28 1015.03 1015.81
1010.29 1010.78 1011.22 1011.58 1011.89 1012.19 1012.51 1012.91 1013.40 1013.96 1014.56 1015.15 1015.67 1016.08 1016.34 1016.46 1016.47 1016.41 1016.33 1016.29 1016.33 1016.44 1016.64 1016.87 1017.09 1017.24 1017.28 1017.15 1016.86 1016.40 1015.80 1015.12 1014.41 1013.75 1013.20 1012.83 1012.66 1012.73 1013.04 1013.55 1014.23 1015.01 1015.83
1009.81 1010.31 1010.76 1011.13 1011.45 1011.74 1012.06 1012.44 1012.91 1013.46 1014.06 1014.65 1015.19 1015.63 1015.93 1016.09 1016.14 1016.11 1016.06 1016.04 1016.08 1016.21 1016.41 1016.67 1016.93 1017.14 1017.25 1017.22 1017.02 1016.65 1016.13 1015.49 1014.79 1014.11 1013.51 1013.06 1012.82 1012.82 1013.06 1013.55 1014.22 1015.03 1015.90
1009.36 1009.87 1010.33 1010.72 1011.04 1011.32 1011.62 1011.98 1012.42 1012.94 1013.51 1014.10 1014.64 1015.09 1015.42 1015.62 1015.71 1015.71 1015.69 1015.68 1015.73 1015.86 1016.06 1016.34 1016.63 1016.90 1017.09 1017.16 1017.07 1016.81 1016.38 1015.81 1015.15 1014.47 1013.84 1013.33 1013.01 1012.93 1013.12 1013.56 1014.22 1015.05 1015.97
1008.96 1009.48 1009.96 1010.36 1010.68 1010.96 1011.24 1011.56 1011.95 1012.42 1012.95 1013.50 1014.01 1014.46 1014.80 1015.02 1015.12 1015.16 1015.15 1015.16 1015.21 1015.34 1015.55 1015.84 1016.16 1016.49 1016.76 1016.93 1016.95 1016.82 1016.50 1016.02 1015.43 1014.77 1014.13 1013.57 1013.19 1013.03 1013.15 1013.55 1014.19 1015.04 1016.00
1008.62 1009.18 1009.68 1010.09 1010.42 1010.68 1010.92 1011.19 1011.51 1011.91 1012.37 1012.85 1013.31 1013.72 1014.04 1014.26 1014.38 1014.42 1014.44 1014.45 1014.51 1014.64 1014.86 1015.15 1015.50 1015.88 1016.22 1016.50 1016.65 1016.64 1016.45 1016.09 1015.57 1014.96 1014.32 1013.74 1013.30 1013.07 1013.13 1013.48 1014.10 1014.96 1015.96
1008.37 1008.96 1009.50 1009.92 1010.24 1010.47 1010.67 1010.87 1011.11 1011.41 1011.77 1012.16 1012.54 1012.89 1013.17 1013.36 1013.48 1013.53 1013.55 1013.58 1013.64 1013.77 1013.99 1014.29 1014.67 1015.09 1015.50 1015.87 1016.14 1016.26 1016.20 1015.96 1015.54 1015.00 1014.39 1013.80 1013.32 1013.04 1013.04 1013.34 1013.94 1014.80 1015.84
1008.20 1008.85 1009.40 1009.83 1010.14 1010.33 1010.46 1010.58 1010.72 1010.91 1011.15 1011.43 1011.72 1011.98 1012.20 1012.37 1012.46 1012.52 1012.54 1012.58 1012.65 1012.78 1013.00 1013.31 1013.71 1014.16 1014.63 1015.08 1015.45 1015.69 1015.77 1015.65 1015.34 1014.88 1014.32 1013.74 1013.25 1012.94 1012.89 1013.14 1013.71 1014.56 1015.63
1008.13 1008.80 1009.37 1009.79 1010.07 1010.21 1010.27 1010.30 1010.34 1010.41 1010.52 1010.68 1010.86 1011.04 1011.20 1011.32 1011.40 1011.45 1011.48 1011.53 1011.61 1011.75 1011.97 1012.28 1012.68 1013.16 1013.67 1014.18 1014.64 1014.99 1015.18 1015.18 1014.99 1014.62 1014.13 1013.60 1013.12 1012.78 1012.70 1012.91 1013.44 1014.28 1015.36
1008.12 1008.81 1009.36 1009.75 1009.98 1010.06 1010.04 1009.98 1009.91 1009.87 1009.87 1009.91 1009.99 1010.09 1010.19 1010.27 1010.34 1010.39 1010.44 1010.50 1010.59 1010.74 1010.96 1011.27 1011.67 1012.15 1012.68 1013.24 1013.76 1014.19 1014.49 1014.61 1014.53 1014.27 1013.87 1013.40 1012.95 1012.62 1012.50 1012.68 1013.17 1013.98 1015.04
1008.15 1008.81 1009.32 1009.66 1009.82 1009.82 1009.73 1009.57 1009.41 1009.27 1009.18 1009.13 1009.13 1009.15 1009.20 1009.26 1009.32 1009.38 1009.45 1009.53 1009.65 1009.81 1010.03 1010.34 1010.73 1011.20 1011.73 1012.30 1012.86 1013.37 1013.75 1013.98 1014.01 1013.87 1013.57 1013.18 1012.78 1012.46 1012.34 1012.48 1012.92 1013.67 1014.70
1008.18 1008.78 1009.22 1009.47 1009.54 1009.47 1009.29 1009.06 1008.81 1008.60 1008.43 1008.31 1008.25 1008.23 1008.25 1008.30 1008.36 1008.43 1008.53 1008.64 1008.77 1008.95 1009.18 1009.48 1009.85 1010.31 1010.84 1011.41 1012.00 1012.54 1013.00 1013.32 1013.47 1013.44 1013.25 1012.95 1012.62 1012.34 1012.21 1012.31 1012.70 1013.38 1014.34
1008.17 1008.68 1009.02 1009.16 1009.14 1008.97 1008.71 1008.41 1008.10 1007.83 1007.61 1007.44 1007.34 1007.30 1007.30 1007.34 1007.41 1007.51 1007.63 1007.77 1007.93 1008.13 1008.37 1008.66 1009.03 1009.47 1009.99 1010.56 1011.16 1011.74 1012.26 1012.66 1012.91 1012.99 1012.91 1012.71 1012.45 1012.22 1012.10 1012.17 1012.50 1013.10 1013.98
1008.10 1008.49 1008.70 1008.73 1008.59 1008.32 1007.99 1007.62 1007.27 1006.95 1006.70 1006.50 1006.37 1006.31 1006.30 1006.34 1006.43 1006.55 1006.70 1006.87 1007.07 1007.29 1007.55 1007.86 1008.22 1008.66 1009.16 1009.73 1010.33 1010.94 1011.50 1011.98 1012.32 1012.50 1012.53 1012.43 1012.26 1012.07 1011.97 1012.02 1012.30 1012.82 1013.62
1007.96 1008.21 1008.28 1008.17 1007.91 1007.55 1007.14 1006.71 1006.32 1005.97 1005.69 1005.47 1005.32 1005.24 1005.22 1005.27 1005.36 1005.50 1005.68 1005.89 1006.13 1006.38 1006.67 1007.00 1007.38 1007.82 1008.33 1008.90 1009.51 1010.14 1010.74 1011.26 1011.67 1011.95 1012.08 1012.07 1011.98 1011.86 1011.79 1011.84 1012.07 1012.54 1013.25
1007.74 1007.84 1007.75 1007.50 1007.12 1006.67 1006.18 1005.71 1005.27 1004.89 1004.58 1004.34 1004.18 1004.08 1004.05 1004.09 1004.19 1004.35 1004.56 1004.81 1005.08 1005.39 1005.73 1006.10 1006.50 1006.97 1007.49 1008.06 1008.68 1009.31 1009.93 1010.50 1010.96 1011.31 1011.52 1011.60 1011.59 1011.54 1011.51 1011.58 1011.81 1012.24 1012.89
1007.45 1007.39 1007.14 1006.75 1006.26 1005.71 1005.16 1004.63 1004.16 1003.75 1003.41 1003.15 1002.96 1002.84 1002.80 1002.83 1002.94 1003.12 1003.35 1003.65 1003.98 1004.34 1004.74 1005.16 1005.61 1006.10 1006.64 1007.22 1007.84 1008.48 1009.10 1009.68 1010.18 1010.57 1010.84 1011.00 1011.06 1011.09 1011.12 1011.24 1011.49 1011.92 1012.55
1007.09 1006.86 1006.46 1005.94 1005.34 1004.71 1004.10 1003.53 1003.02 1002.58 1002.22 1001.93 1001.72 1001.58 1001.53 1001.56 1001.68 1001.88 1002.16 1002.50 1002.89 1003.32 1003.77 1004.26 1004.76 1005.29 1005.84 1006.43 1007.04 1007.66 1008.27 1008.83 1009.34 1009.74 1010.06 1010.27 1010.41 1010.51 1010.63 1010.82 1011.13 1011.60 1012.26
1006.67 1006.27 1005.73 1005.09 1004.40 1003.70 1003.04 1002.44 1001.90 1001.44 1001.06 1000.76 1000.53 1000.39 1000.33 1000.37 1000.51 1000.74 1001.06 1001.46 1001.91 1002.40 1002.93 1003.46 1004.01 1004.57 1005.14 1005.71 1006.30 1006.88 1007.45 1007.98 1008.46 1008.86 1009.19 1009.45 1009.66 1009.85 1010.07 1010.35 1010.76 1011.30 1012.02
1006.19 1005.65 1004.98 1004.24 1003.48 1002.73 1002.03 1001.40 1000.85 1000.38 999.99 999.69 999.46 999.33 999.29 999.35 999.52 999.79 1000.17 1000.62 1001.13 1001.68 1002.26 1002.84 1003.42 1003.98 1004.54 1005.09 1005.63 1006.16 1006.66 1007.14 1007.58 1007.96 1008.30 1008.60 1008.87 1009.15 1009.48 1009.88 1010.40 1011.06 1011.87
1005.67 1005.00 1004.22 1003.40 1002.58 1001.80 1001.08 1000.44 999.89 999.42 999.05 998.75 998.55 998.44 998.43 998.54 998.76 999.08 999.50 1000.01 1000.57 1001.17 1001.77 1002.38 1002.96 1003.51 1004.04 1004.54 1005.02 1005.48 1005.92 1006.33 1006.72 1007.08 1007.42 1007.76 1008.10 1008.48 1008.92 1009.46 1010.11 1010.89 1011.81
1005.12 1004.34 1003.48 1002.61 1001.75 1000.95 1000.22 999.58 999.04 998.59 998.23 997.97 997.80 997.73 997.77 997.93 998.20 998.58 999.05 999.59 1000.18 1000.80 1001.42 1002.01 1002.57 1003.09 1003.57 1004.01 1004.42 1004.81 1005.18 1005.54 1005.89 1006.23 1006.59 1006.97 1007.39 1007.87 1008.43 1009.10 1009.89 1010.80 1011.82
1004.55 1003.68 1002.77 1001.86 1000.99 1000.18 999.46 998.82 998.30 997.86 997.53 997.30 997.17 997.15 997.25 997.45 997.77 998.19 998.70 999.26 999.86 1000.47 1001.06 1001.62 1002.14 1002.61 1003.03 1003.41 1003.76 1004.09 1004.41 1004.74 1005.08 1005.44 1005.83 1006.27 1006.78 1007.37 1008.05 1008.85 1009.76 1010.78 1011.91
1003.98 1003.06 1002.11 1001.18 1000.31 999.50 998.78 998.15 997.63 997.21 996.90 996.70 996.60 996.62 996.76 997.00 997.36 997.80 998.31 998.87 999.45 1000.02 1000.57 1001.08 1001.54 1001.95 1002.32 1002.65 1002.97 1003.27 1003.59 1003.92 1004.29 1004.69 1005.15 1005.68 1006.29 1006.99 1007.79 1008.70 1009.72 1010.83 1012.03
1003.41 1002.46 1001.50 1000.57 999.69 998.89 998.17 997.54 997.02 996.60 996.29 996.10 996.02 996.05 996.20 996.46 996.82 997.25 997.74 998.27 998.80 999.32 999.81 1000.26 1000.66 1001.03 1001.37 1001.69 1002.00 1002.33 1002.68 1003.07 1003.51 1004.01 1004.57 1005.21 1005.93 1006.74 1007.65 1008.65 1009.75 1010.93 1012.17
1002.86 1001.90 1000.94 1000.02 999.15 998.34 997.61 996.97 996.43 995.99 995.67 995.46 995.36 995.38 995.52 995.75 996.08 996.47 996.91 997.37 997.84 998.29 998.72 999.11 999.48 999.83 1000.17 1000.51 1000.88 1001.28 1001.73 1002.23 1002.79 1003.41 1004.10 1004.86 1005.70 1006.61 1007.61 1008.68 1009.83 1011.03 1012.29
Thickness
5566 5565 5565 5565 5565 5565 5565 5565 5566 5565 5565 5564 5564 5563 5564 5565 5565 5565 5566 5565 5565 5565 5564 5564 5563 5562 5562 5562 5561 5561 5560 5560 5560 5561 5562 5564 5564 5564 5564 5564 5564 5564 5564
5556 5557 5556 5556 5556 5556 5556 5556 5556 5557 5557 5557 5556 5556 5556 5556 5556 5556 5556 5556 5556 5555 5555 5555 5554 5553 5552 5552 5551 5551 5549 5549 5548 5548 5549 5551 5553 5554 5554 5553 5553 5553 5553
5550 5550 5549 5548 5547 5547 5547 5549 5548 5548 5548 5548 5547 5546 5546 5546 5545 5546 5546 5546 5546 5546 5545 5545 5545 5543 5543 5542 5541 5541 5540 5538 5537 5537 5537 5538 5540 5540 5543 5543 5542 5542 5542
5544 5543 5542 5541 5540 5540 5539 5539 5539 5539 5539 5538 5538 5538 5538 5537 5537 5537 5537 5537 5536 5536 5536 5536 5535 5534 5533 5532 5531 5530 5530 5528 5527 5526 5525 5525 5526 5526 5529 5531 5531 5531 5531
5537 5536 5535 5535 5534 5532 5531 5530 5530 5530 5530 5529 5529 5529 5528 5528 5527 5526 5526 5526 5527 5527 5527 5526 5526 5524 5523 5522 5521 5520 5519 5518 5517 5516 5515 5515 5515 5516 5516 5519 5520 5520 5521
5531 5530 5529 5528 5526 5524 5523 5522 5521 5521 5521 5521 5521 5520 5520 5519 5517 5517 5517 5517 5517 5517 5517 5517 5516 5515 5514 5513 5512 5511 5509 5508 5507 5507 5506 5506 5506 5506 5506 5506 5507 5508 5510
5525 5524 5523 5521 5519 5517 5516 5514 5514 5513 5513 5512 5512 5512 5512 5511 5510 5509 5509 5508 5508 5508 5509 5508 5507 5506 5505 5504 5503 5501 5500 5499 5498 5498 5497 5497 5496 5496 5496 5496 5496 5497 5499
5517 5517 5516 5514 5512 5511 5509 5507 5506 5505 5505 5504 5504 5503 5503 5503 5502 5501 5500 5501 5501 5501 5500 5500 5499 5498 5497 5496 5494 5493 5492 5491 5490 5489 5487 5487 5486 5486 5487 5487 5486 5486 5488
5511 5509 5509 5507 5505 5503 5502 5500 5499 5498 5498 5497 5496 5495 5495 5495 5494 5493 5493 5493 5493 5493 5492 5492 5491 5490 5489 5488 5486 5485 5483 5482 5481 5479 5478 5478 5477 5477 5477 5477 5477 5476 5478
5504 5501 5500 5499 5497 5495 5494 5492 5491 5491 5491 5490 5489 5489 5488 5487 5487 5486 5485 5484 5484 5484 5484 5483 5482 5481 5481 5479 5478 5477 5475 5474 5473 5471 5470 5469 5469 5468 5468 5467 5468 5468 5469
5495 5492 5491 5490 5488 5487 5485 5484 5483 5482 5482 5481 5481 5480 5480 5479 5479 5478 5477 5476 5476 5475 5475 5475 5474 5473 5473 5471 5470 5469 5468 5466 5465 5463 5462 5462 5461 5460 5459 5459 5459 5459 5459
5488 5485 5483 5481 5479 5479 5477 5476 5476 5475 5474 5474 5474 5473 5473 5472 5471 5470 5469 5468 5468 5467 5467 5467 5466 5466 5465 5464 5464 5462 5461 5459 5458 5456 5455 5454 5453 5452 5451 5450 5451 5451 5452
5482 5479 5475 5473 5473 5473 5472 5471 5470 5469 5468 5467 5466 5465 5465 5464 5463 5463 5462 5461 5460 5459 5459 5459 5458 5458 5458 5457 5456 5454 5453 5452 5451 5450 5448 5447 5446 5445 5444 5444 5445 5445 5445
5475 5473 5470 5468 5467 5466 5466 5465 5464 5463 5462 5460 5459 5458 5458 5457 5456 5455 5454 5453 5452 5451 5451 5451 5450 5450 5450 5450 5449 5448 5447 5446 5444 5443 5442 5441 5440 5439 5439 5439 5439 5438 5437
5471 5469 5466 5463 5461 5460 5460 5459 5458 5456 5455 5453 5452 5451 5451 5450 5449 5447 5446 5445 5444 5444 5443 5443 5443 5443 5444 5444 5442 5441 5440 5438 5437 5436 5436 5435 5435 5435 5434 5434 5433 5432 5431
5467 5464 5461 5458 5456 5455 5454 5453 5451 5450 5448 5446 5445 5444 5443 5442 5441 5440 5438 5437 5436 5436 5435 5435 5435 5436 5437 5438 5437 5435 5433 5432 5431 5430 5430 5429 5428 5429 5429 5428 5428 5428 5427
5460 5458 5456 5454 5452 5450 5450 5447 5446 5443 5440 5439 5438 5437 5436 5435 5434 5434 5431 5430 5428 5428 5428 5428 5428 5429 5429 5431 5431 5430 5427 5425 5424 5424 5424 5424 5424 5424 5422 5423 5423 5422 5422
5455 5453 5451 5449 5447 5445 5443 5441 5439 5436 5434 5433 5431 5430 5429 5428 5427 5426 5424 5423 5421 5420 5420 5420 5421 5421 5422 5423 5424 5423 5421 5419 5419 5418 5418 5418 5418 5419 5418 5418 5416 5416 5415
5451 5448 5446 5444 5441 5439 5437 5435 5432 5430 5428 5427 5426 5425 5423 5422 5420 5419 5417 5416 5414 5414 5413 5413 5413 5413 5414 5416 5417 5416 5414 5413 5413 5413 5412 5412 5413 5415 5414 5412 5410 5410 5409
5444 5442 5440 5437 5435 5433 5430 5428 5426 5424 5423 5423 5421 5419 5418 5416 5414 5412 5410 5409 5408 5407 5406 5406 5406 5406 5407 5408 5410 5409 5408 5407 5407 5406 5406 5407 5408 5409 5409 5407 5405 5404 5404
5438 5436 5433 5431 5429 5427 5424 5422 5420 5419 5420 5418 5416 5414 5412 5410 5407 5405 5403 5401 5400 5399 5399 5398 5399 5399 5400 5401 5403 5403 5402 5401 5401 5400 5400 5401 5402 5403 5402 5402 5400 5400 5398
5431 5429 5426 5424 5422 5420 5418 5416 5414 5415 5413 5412 5410 5408 5405 5404 5402 5398 5397 5395 5393 5392 5391 5391 5391 5392 5393 5393 5395 5397 5397 5396 5394 5394 5395 5395 5396 5396 5396 5395 5395 5394 5391
5423 5421 5419 5417 5415 5413 5412 5410 5410 5408 5407 5405 5403 5401 5399 5397 5395 5393 5391 5389 5387 5386 5385 5385 5385 5385 5385 5386 5388 5389 5390 5390 5389 5388 5389 5389 5389 5389 5389 5388 5388 5386 5383
5416 5414 5412 5409 5408 5407 5406 5404 5403 5402 5400 5398 5396 5395 5393 5391 5388 5386 5385 5383 5382 5380 5380 5380 5380 5379 5378 5379 5380 5380 5381 5382 5381 5381 5381 5382 5382 5382 5381 5380 5379 5377 5376
5409 5406 5404 5403 5402 5400 5400 5399 5397 5396 5393 5392 5390 5388 5386 5384 5382 5381 5379 5378 5377 5376 5375 5375 5374 5373 5374 5375 5376 5374 5374 5374 5374 5374 5373 5373 5373 5373 5372 5371 5370 5370 5369
5402 5399 5397 5396 5395 5394 5394 5393 5392 5390 5388 5386 5384 5382 5380 5378 5377 5374 5372 5372 5371 5371 5370 5370 5369 5369 5369 5370 5370 5369 5369 5369 5368 5367 5366 5366 5365 5365 5365 5364 5363 5363 5362